#timestamp,LO_Frequency,Hit,StdDev 
1588557615.8,286047007.3,N
1588557635.6,286047006.2,N
1588557655.5,286047007.9,N
1588557675.3,286047013.8,Y
1588557695.2,286047007.7,P
1588557715.9,286047010.4,P
1588557735.7,286047010.5,P
1588557755.6,286047009.0,Y
1588557775.4,286046999.0,P
1588557795.3,286046998.4,N
1588557815.1,286046996.5,N
1588557816.0,286046996.5,N
1588557835.8,286046999.5,N
1588557855.7,286046997.2,N
1588557875.5,286046997.2,N
1588557895.3,286046996.1,N
1588557915.2,286046994.9,N
1588557935.0,286046999.5,N
1588557935.9,286046999.5,N
1588557955.8,286046996.9,N
1588557975.6,286046998.6,N
1588557995.4,286046999.2,N
1588558015.3,286046999.1,N
1588558035.1,286047000.8,N
1588558055.8,286046999.4,N
1588558075.7,286046999.4,N
1588558095.5,286046996.8,N
1588558115.4,286046997.7,N
1588558135.2,286046996.3,N
1588558155.0,286046993.6,N
1588558155.9,286046993.6,N
1588558175.8,286046994.8,N
1588558195.6,286046993.1,N
1588558215.4,286046993.0,N
1588558235.3,286046992.2,N
1588558255.1,286047000.4,N
1588558275.9,286046994.8,N
1588558295.7,286046994.0,N
1588558315.5,286047000.4,N
1588558335.4,286047004.3,N
1588558355.2,286047003.6,N
1588558375.0,286047008.7,N
1588558375.9,286047008.7,N
1588558395.8,286047008.6,N
1588558415.6,286047010.4,N
1588558435.5,286047009.4,N
1588558455.3,286047012.0,N
1588558475.1,286047012.1,N
1588558495.9,286047008.8,N
1588558515.7,286047009.0,N
1588558535.6,286047005.3,N
1588558555.4,286047001.8,N
1588558575.2,286047001.5,N
1588558595.1,286047000.0,N
1588558596.0,286047000.0,N
1588558615.8,286047001.2,N
1588558635.7,286046996.7,N
1588558655.5,286047000.0,N
1588558675.3,286046999.9,N
1588558695.2,286046999.7,N
1588558715.9,286047003.8,N
1588558735.7,286047003.1,N
1588558755.6,286047006.1,N
1588558775.4,286047007.8,N
1588558795.2,286047010.1,N
1588558815.1,286047015.4,Y
1588558816.0,286047015.4,P
1588558835.8,286047010.6,N
1588558855.7,286047010.3,N
1588558875.5,286047010.6,N
1588558895.3,286047008.2,N
1588558915.2,286047010.3,Y
1588558935.0,286046999.8,P
1588558935.9,286046999.8,N
1588558955.8,286047000.2,N
1588558975.6,286047001.2,N
1588558995.4,286046998.8,N
1588559015.3,286046998.4,N
1588559035.1,286046996.9,N
1588559055.8,286046996.5,N
1588559075.7,286046996.6,N
1588559095.5,286046997.7,N
1588559115.3,286046995.7,N
1588559135.2,286046993.7,N
1588559155.0,286046990.4,N
1588559155.9,286046990.4,N
1588559175.8,286046989.6,N
1588559195.6,286046985.9,N
1588559215.4,286046985.9,N
1588559235.3,286046985.5,N
1588559255.1,286046984.6,N
1588559275.8,286046986.4,N
1588559295.7,286046983.9,N
1588559315.5,286046983.8,N
1588559335.4,286046984.6,N
1588559355.2,286046984.7,N
1588559375.0,286046982.9,N
1588559375.9,286046982.9,N
1588559395.8,286046983.4,N
1588559415.6,286046981.1,N
1588559435.4,286046977.8,N
1588559455.3,286046974.6,Y
1588559475.1,286046979.7,P
1588559495.9,286046978.2,P
1588559515.7,286046971.1,P
1588559535.5,286046967.1,Y
1588559555.4,286046980.7,P
1588559575.2,286046978.5,P
1588559595.1,286046978.0,P
1588559596.0,286046978.0,Y
1588559615.8,286046996.9,P
1588559635.6,286046997.5,N
1588559655.5,286046995.5,N
1588559675.3,286046995.3,N
1588559695.1,286046997.1,N
1588559715.9,286046999.0,N
1588559735.7,286046999.9,N
1588559755.6,286047005.7,N
1588559775.4,286047008.9,N
1588559795.2,286047009.3,N
1588559815.1,286047015.5,N
1588559816.0,286047015.5,N
1588559835.8,286047015.2,N
1588559855.6,286047015.7,N
1588559875.5,286047018.6,N
1588559895.3,286047018.2,N
1588559915.2,286047021.4,N
1588559935.9,286047023.5,N
1588559955.7,286047020.9,N
1588559975.6,286047021.6,N
1588559995.4,286047018.9,N
1588560015.2,286047019.3,N
1588560035.1,286047021.3,N
1588560036.0,286047021.3,N
1588560055.8,286047022.1,N
1588560075.7,286047024.1,N
1588560095.5,286047025.6,N
1588560115.3,286047029.0,N
1588560135.2,286047028.7,N
1588560155.9,286047032.2,N
1588560175.7,286047033.4,Y
1588560195.6,286047021.5,P
1588560215.4,286047024.6,P
1588560235.3,286047025.6,P
1588560255.1,286047029.8,Y
1588560256.0,286047029.8,P
1588560275.8,286047006.4,N
1588560295.7,286047007.0,N
1588560315.5,286047009.4,N
1588560335.3,286047013.4,N
1588560355.2,286047013.0,N
1588560375.0,286047015.8,N
1588560375.9,286047015.8,N
1588560395.8,286047017.7,N
1588560415.6,286047016.5,N
1588560435.4,286047018.7,N
1588560455.3,286047015.4,N
1588560475.1,286047014.6,N
1588560495.8,286047012.8,N
1588560515.7,286047013.6,N
1588560535.5,286047013.2,N
1588560555.4,286047012.9,N
1588560575.2,286047010.6,N
1588560595.0,286047006.2,N
1588560595.9,286047006.2,N
1588560615.8,286047009.2,N
1588560635.6,286047006.3,N
1588560655.4,286047003.8,N
1588560675.3,286047000.0,N
1588560695.1,286046993.5,N
1588560715.9,286046993.2,N
1588560735.7,286046985.0,N
1588560755.5,286046980.0,N
1588560775.4,286046980.1,N
1588560795.2,286046979.6,N
1588560815.0,286046980.0,N
1588560815.9,286046980.0,N
1588560835.8,286046978.0,N
1588560855.6,286046977.1,N
1588560875.4,286046974.1,N
1588560895.3,286046973.6,N
1588560915.1,286046969.6,N
1588560965.9,286046970.2,E
1588560975.8,286046983.6,N
1588560995.6,286047000.0,P
1588561015.5,286047001.0,N
1588561035.3,286047001.4,N
1588561055.1,286046998.2,N
1588561075.9,286046997.3,N
1588561095.7,286046996.7,N
1588561115.6,286046998.6,N
1588561135.4,286046996.8,N
1588561155.2,286046997.8,N
1588561175.1,286046998.8,N
1588561176.0,286046998.8,N
1588561195.8,286046999.5,N
